Hourly Data Report for October 21, 2014

All times are specified in Local Standard Time (LST). Add 1 hour to adjust for Daylight Saving Time where and when it is observed.

CAPE DORSET A
NUNAVUT

64°13'49.000" N
76°31'30.000" W
48.20 m
2400637
71366
YTE

Download Data

Hourly Data (October 2014)
Hourly Data Report for October 21, 2014
Temp Definition
°C
Dew Point Temp Definition
°C
Rel Hum Definition
%
Wind Dir Definition
10's deg

Wind Spd Definition
km/h
Visibility Definition
km
Stn Press Definition
kPa
Hmdx Definition


Wind Chill Definition


Weather Definition


TIME
00:00 Legend Double Dagger -3.3 -5.0 88 27 22 16.1 100.44   -10 LegendNANA
01:00 Legend Double Dagger -3.2 -4.8 89 28 26 16.1 100.49   -10 LegendNANA
02:00 Legend Double Dagger -3.5 -4.8 91 28 28 14.5 100.50   -11 LegendNANA
03:00 Legend Double Dagger -3.5 -4.9 90 27 24 16.1 100.47   -10 LegendNANA
04:00 Legend Double Dagger -4.0 -5.7 88 29 37 16.1 100.51   -12 LegendNANA
05:00 Legend Double Dagger -3.9 -5.7 88 27 32 16.1 100.54   -12 LegendNANA
06:00 Legend Double Dagger -4.2 -5.9 88 28 22 16.1 100.56   -11 LegendNANA
07:00 Legend Double Dagger -4.1 -5.4 91 27 24 16.1 100.59   -11 LegendNANA
08:00 Legend Double Dagger -3.9 -5.2 91 27 26 16.1 100.58   -11 LegendNANA
09:00 Legend Double Dagger -3.8 -4.4 96 27 24 16.1 100.56   -11 Snow
10:00 Legend Double Dagger -3.7 -4.1 97 28 24 16.1 100.54   -11 LegendNANA
11:00 Legend Double Dagger -3.3 -4.2 93 27 26 16.1 100.52   -10 LegendNANA
12:00 Legend Double Dagger -3.3 -4.3 93 26 18 4.8 100.53   -9 Snow
13:00 Legend Double Dagger -3.2 -3.8 96 25 28 1.2 100.51   -10 Snow
14:00 Legend Double Dagger -3.5 -4.6 92 25 24 4.8 100.50   -10 Snow
15:00 Legend Double Dagger -3.3 -4.4 92 25 24 2.4 100.48   -10 Snow
16:00 Legend Double Dagger -2.9 -4.0 92 25 24 3.2 100.41   -10 Snow
17:00 Legend Double Dagger -2.7 -3.0 98 24 21 2.0 100.37   -9 Snow
18:00 Legend Double Dagger -2.0 -2.7 95 22 24 8.1 100.32   -8 Snow
19:00 Legend Double Dagger -1.6 -2.0 97 19 21 16.1 100.24   -7 Snow
20:00 Legend Double Dagger -1.5 -2.2 95 17 21 14.5 100.19   -7 Snow
21:00 Legend Double Dagger -0.7 -0.7 100 16 21 4.0 100.05   -6 Snow
22:00 Legend Double Dagger -0.3 -0.3 100 16 32 3.6 99.90   -7 Snow
23:00 Legend Double Dagger 0.3 LegendMM LegendMM 17 28 4.0 99.78     LegendNANA

Notes on Data Quality.

Legend

  • E = Estimated
  • M = Missing
  • NA = Not Available
  • ‡ = Partner data that is not subject to review by the National Climate Archives
Date modified: